Location: Uhlířské Janovice, 285 04, Česko
(49.8369°N, 15.0553°E)
Time: 04:24:49
(UTC+02:00)

ISS - Visible Passes

Search period start: 24 July 2019 00:00
Search period end: 03 August 2019 00:00
Orbit: 409 x 418 km, 51.6° (Epoch: 24 July)

Date Brightness Start Highest point End Pass type
(mag) Time Alt. Az. Time Alt. Az. Time Alt. Az.
24 Jul -1.3 01:25:27 10° W 01:25:58 13° W 01:25:58 13° W visible
24 Jul -3.4 22:59:19 10° WNW 23:02:39 65° N 23:05:15 15° E visible
25 Jul -2.5 00:36:04 10° WNW 00:38:04 31° W 00:38:04 31° W visible
25 Jul -3.3 22:09:58 10° W 22:13:18 61° N 22:16:37 10° E visible
25 Jul -4.0 23:46:45 10° WNW 23:50:04 72° SSW 23:50:12 71° S visible
26 Jul -3.8 22:57:25 10° WNW 23:00:46 87° NNE 23:02:22 28° ESE visible
27 Jul -1.4 00:34:22 10° W 00:35:11 15° W 00:35:11 15° W visible
27 Jul -3.6 22:08:04 10° WNW 22:11:26 72° NNE 22:14:35 11° E visible
27 Jul -2.8 23:44:52 10° W 23:47:24 35° WSW 23:47:24 35° WSW visible
28 Jul -3.6 22:55:27 10° WNW 22:58:45 56° SSW 22:59:38 40° SSE visible
29 Jul -3.8 22:06:05 10° WNW 22:09:26 78° SSW 22:11:53 17° ESE visible
29 Jul -1.7 23:43:15 10° W 23:44:42 17° WSW 23:44:42 17° WSW visible
30 Jul -3.7 21:16:43 10° WNW 21:20:05 82° NNE 21:23:25 10° ESE visible
30 Jul -2.7 22:53:36 10° W 22:56:34 29° SSW 22:56:59 28° SSW visible
31 Jul -3.2 22:04:06 10° WNW 22:07:18 43° SSW 22:09:18 19° SE visible
01 Aug -1.6 22:52:14 10° WSW 22:54:10 15° SW 22:54:28 14° SW visible
02 Aug -2.0 22:02:19 10° W 22:04:58 22° SW 22:06:51 14° S visible
